"Pseudo-MPEC" for P21vmRU

Created 2022 Aug 23 16:22:43 UT using Find_Orb

Click here for an explanation of pseudo-MPECs

 
 Astrometry: 
     P21vmRU* C2022 07 23b4!t63V4*7+?(dI2g%Astrometry9(BPnY$rT2=wt?fredacted;F52
     P21vmRU  C2022 07 23O9V=IkG;PAwoj/\I#ekS3KW,%DIVclickrBvH5Se^xfyN-vCQ`cEF52
     P21vmRU  C2022 07 23lpXq'PKhereA,Dc]Fx6e74Q6_3:jMtk6?7`Q.gJ^mkDk/'7aqVR_F52
     P21vmRU KC2022 07 24-iVFVp7)j(sc?Y:'?mdc8sEO4p+g0m0f9f\*I2Bi+U]f/+#fo;9nH21
     P21vmRU KC2022 07 24E'*nNwX:kDPuGVbiEGx)4._for?eKhZ6explanation%EUd:)aLxH21
     P21vmRU 1C2022 07 24.99723 20 15 46.96 +09 39 44.9    ~8FDb 22.1 VXNEOCP033
     P21vmRU 1C2022 07 25.00082 20 15 46.93 +09 39 48.3    ~8FDb 22.4 VXNEOCP033
     P21vmRU 1C2022 07 25.00440 20 15 46.87 +09 39 51.5    ~8FDb 21.9 VXNEOCP033

Station data:
(033) Karl Schwarzschild Observatory, Tautenburg  (N50.980137 E11.711240)
   Germany.  Observers S. Melnikov, C. Hoegner, B. Stecklum. Measurer B.
   Stecklum. 1.34-m f/3 Schmidt + CCD.
(F52) Pan-STARRS 2, Haleakala  (N20.707382 W156.255910)  US/Hawaii.
   Observers J. Bulger, T. Dukes, T. Lowe, A. Schultz, M. Willman. Measurers
   K. Chambers, S. Chastel, T. de Boer, L. Denneau, J. Fairlamb, H.
   Flewelling, M. Huber, C.-C. Lin, E. Magnier, Y. Ramanjooloo, R. Wainscoat,
   R. Weryk. 1.8-m Ritchey-Chrétien + CCD.
(H21) Astronomical Research Observatory, Westfield  (N39.483054 W87.968270)
   US/Illinois.  Observer R. Holmes. Measurers S. Foglia, L. Buzzi, T.
   Linder, R. Holmes. 0.76-m f/3.0 astrograph + CCD0.81-m f/4.0 astrograph +
   CCD0.61-m f/4.5 astrograph + CCD0.40-m f/5.32 astrograph + CCD.

Orbital elements:  P21vmRU
   Perihelion 2022 Jul 13.41569 +/- 22.8 TT =  9:58:35 (JD 2459773.91569)
Epoch 2022 Jul 25.0 TT = JDT 2459785.5   Earth MOID: 0.4345   Ma: 0.0619
M   2.75101221 +/- 7                (J2000 ecliptic)          AutoNEOCP
n   0.23747746 +/- 0.0809           Peri.   42.94540 +/- 26
a   2.58258391 +/- 0.587            Node   253.30382 +/- 9
e   0.4481866 +/- 0.0904            Incl.   11.31827 +/- 1.9
P   4.15                   H 22.0   G  0.15   U 11.1  SR
q 1.42510426 +/- 0.064    Q 3.74006356 +/- 0.774
From 8 observations 2022 July 23-25 (39.8 hr); mean residual 0".45
Residuals in arcseconds: 
220723 F52  .38+  .14-    220724 H21  1.2-  .48+    220725 033  .53+  .01-    
220723 F52  .30+  .02-    220724 H21  .80-  .10-    220725 033  .37+  .05-    
220723 F52  .21+  .00     220724 033  .23+  .16-    

Ephemerides (geocentric):
Date (UTC) HH   RA             Dec           delta  r     elong  mag " sig PA
---- --------  ------------   ------------  ------ ------ -----  --- --------
2022 08 23 16  20 17 58.392   +11 59 08.41  .53675 1.4789 143.8 22.6 1373  77
2022 08 23 17  20 17 59.510   +11 58 58.60  .53693 1.4790 143.8 22.6 1375  77
2022 08 23 18  20 18 00.630   +11 58 48.74  .53712 1.4791 143.8 22.6 1378  77
2022 08 23 19  20 18 01.754   +11 58 38.84  .53730 1.4792 143.8 22.6 1380  77
2022 08 23 20  20 18 02.881   +11 58 28.90  .53749 1.4793 143.8 22.6 1383  76
2022 08 23 21  20 18 04.011   +11 58 18.92  .53768 1.4794 143.8 22.6 1385  76
2022 08 23 22  20 18 05.145   +11 58 08.89  .53786 1.4795 143.7 22.6 1388  76
2022 08 23 23  20 18 06.282   +11 57 58.82  .53805 1.4796 143.7 22.6 1390  76
2022 08 24 00  20 18 07.422   +11 57 48.71  .53824 1.4797 143.7 22.6 1393  76
2022 08 24 01  20 18 08.565   +11 57 38.55  .53842 1.4798 143.7 22.6 1396  76
2022 08 24 02  20 18 09.712   +11 57 28.35  .53861 1.4799 143.7 22.6 1398  76
2022 08 24 03  20 18 10.862   +11 57 18.11  .53880 1.4800 143.7 22.6 1401  76
2022 08 24 04  20 18 12.016   +11 57 07.83  .53899 1.4801 143.7 22.6 1403  76
2022 08 24 05  20 18 13.172   +11 56 57.51  .53917 1.4802 143.6 22.6 1406  76
2022 08 24 06  20 18 14.332   +11 56 47.14  .53936 1.4803 143.6 22.6 1408  76
2022 08 24 07  20 18 15.496   +11 56 36.74  .53955 1.4804 143.6 22.6 1411  76
2022 08 24 08  20 18 16.662   +11 56 26.29  .53974 1.4806 143.6 22.6 1414  76
2022 08 24 09  20 18 17.832   +11 56 15.79  .53993 1.4807 143.6 22.6 1416  76
2022 08 24 10  20 18 19.005   +11 56 05.26  .54012 1.4808 143.6 22.6 1419  76
2022 08 24 11  20 18 20.182   +11 55 54.69  .54031 1.4809 143.5 22.6 1421  76
2022 08 24 12  20 18 21.362   +11 55 44.07  .54049 1.4810 143.5 22.6 1424  76
2022 08 24 13  20 18 22.545   +11 55 33.41  .54068 1.4811 143.5 22.6 1426  76
2022 08 24 14  20 18 23.731   +11 55 22.71  .54087 1.4812 143.5 22.6 1429  76
2022 08 24 15  20 18 24.921   +11 55 11.97  .54106 1.4813 143.5 22.6 1432  76
2022 08 24 16  20 18 26.114   +11 55 01.19  .54125 1.4814 143.5 22.6 1434  76
2022 08 24 17  20 18 27.310   +11 54 50.37  .54144 1.4815 143.5 22.6 1437  75
2022 08 24 18  20 18 28.510   +11 54 39.50  .54163 1.4816 143.4 22.6 1440  75
2022 08 24 19  20 18 29.713   +11 54 28.60  .54182 1.4817 143.4 22.6 1442  75
2022 08 24 20  20 18 30.919   +11 54 17.65  .54202 1.4818 143.4 22.6 1445  75
2022 08 24 21  20 18 32.129   +11 54 06.67  .54221 1.4819 143.4 22.6 1447  75
2022 08 24 22  20 18 33.342   +11 53 55.64  .54240 1.4821 143.4 22.6 1450  75
2022 08 24 23  20 18 34.558   +11 53 44.57  .54259 1.4822 143.4 22.6 1453  75
2022 08 25 00  20 18 35.778   +11 53 33.47  .54278 1.4823 143.3 22.6 1455  75
2022 08 25 01  20 18 37.001   +11 53 22.32  .54297 1.4824 143.3 22.6 1458  75
2022 08 25 02  20 18 38.227   +11 53 11.13  .54316 1.4825 143.3 22.6 1461  75
2022 08 25 03  20 18 39.457   +11 52 59.90  .54336 1.4826 143.3 22.6 1463  75
2022 08 25 04  20 18 40.690   +11 52 48.63  .54355 1.4827 143.3 22.6 1466  75
2022 08 25 05  20 18 41.926   +11 52 37.32  .54374 1.4828 143.3 22.6 1469  75
2022 08 25 06  20 18 43.165   +11 52 25.97  .54393 1.4829 143.3 22.6 1471  75
2022 08 25 07  20 18 44.408   +11 52 14.59  .54413 1.4830 143.2 22.7 1474  75
2022 08 25 08  20 18 45.654   +11 52 03.16  .54432 1.4831 143.2 22.7 1477  75
2022 08 25 09  20 18 46.904   +11 51 51.69  .54451 1.4833 143.2 22.7 1479  75
2022 08 25 10  20 18 48.157   +11 51 40.18  .54471 1.4834 143.2 22.7 1482  75
2022 08 25 11  20 18 49.413   +11 51 28.63  .54490 1.4835 143.2 22.7 1485  74
2022 08 25 12  20 18 50.673   +11 51 17.05  .54510 1.4836 143.2 22.7 1488  74
2022 08 25 13  20 18 51.936   +11 51 05.42  .54529 1.4837 143.2 22.7 1490  74
2022 08 25 14  20 18 53.202   +11 50 53.76  .54548 1.4838 143.1 22.7 1493  74
2022 08 25 15  20 18 54.471   +11 50 42.05  .54568 1.4839 143.1 22.7 1496  74